Year,Month,Day,Hour,Minute,Value (Times are PST for windspeed in km/hr)
2008,10,08,00,00,0.80
2008,10,08,00,01,3.60
2008,10,08,00,02,6.50
2008,10,08,00,03,5.20
2008,10,08,00,04,7.60
2008,10,08,00,05,4.40
2008,10,08,00,06,7.20
2008,10,08,00,07,8.00
2008,10,08,00,08,3.20
2008,10,08,00,09,1.30
2008,10,08,00,10,6.40
2008,10,08,00,11,6.90
2008,10,08,00,12,2.90
2008,10,08,00,13,1.50
2008,10,08,00,14,5.70
2008,10,08,00,15,6.30
2008,10,08,00,16,6.20
2008,10,08,00,17,6.20
2008,10,08,00,18,4.20
2008,10,08,00,19,3.10
2008,10,08,00,20,4.30
2008,10,08,00,21,0.90
2008,10,08,00,22,1.90
2008,10,08,00,23,4.70
2008,10,08,00,24,0.40
2008,10,08,00,25,0.20
2008,10,08,00,26,1.20
2008,10,08,00,27,0.00
2008,10,08,00,28,3.00
2008,10,08,00,29,3.20
2008,10,08,00,30,0.00
2008,10,08,00,31,3.70
2008,10,08,00,32,10.90
2008,10,08,00,33,14.00
2008,10,08,00,34,9.40
2008,10,08,00,35,5.10
2008,10,08,00,36,5.80
2008,10,08,00,37,3.40
2008,10,08,00,38,9.70
2008,10,08,00,39,3.30
2008,10,08,00,40,2.90
2008,10,08,00,41,1.30
2008,10,08,00,42,0.40
2008,10,08,00,43,1.00
2008,10,08,00,44,3.10
2008,10,08,00,45,3.00
2008,10,08,00,46,1.50
2008,10,08,00,47,3.00
2008,10,08,00,48,6.00
2008,10,08,00,49,5.70
2008,10,08,00,50,3.40
2008,10,08,00,51,1.80
2008,10,08,00,52,6.40
2008,10,08,00,53,6.80
2008,10,08,00,54,9.70
2008,10,08,00,55,5.50
2008,10,08,00,56,7.70
2008,10,08,00,57,6.70
2008,10,08,00,58,2.40
2008,10,08,00,59,2.50
2008,10,08,01,00,5.00
2008,10,08,01,01,2.50
2008,10,08,01,02,3.50
2008,10,08,01,03,4.40
2008,10,08,01,04,6.70
2008,10,08,01,05,10.90
2008,10,08,01,06,9.70
2008,10,08,01,07,11.30
2008,10,08,01,08,7.10
2008,10,08,01,09,9.70
2008,10,08,01,10,9.20
2008,10,08,01,11,12.20
2008,10,08,01,12,12.20
2008,10,08,01,13,6.70
2008,10,08,01,14,7.70
2008,10,08,01,15,10.00
2008,10,08,01,16,12.40
2008,10,08,01,17,8.50
2008,10,08,01,18,9.10
2008,10,08,01,19,7.80
2008,10,08,01,20,8.90
2008,10,08,01,21,9.50
2008,10,08,01,22,10.60
2008,10,08,01,23,11.60
2008,10,08,01,24,10.50
2008,10,08,01,25,14.60
2008,10,08,01,26,13.00
2008,10,08,01,27,8.40
2008,10,08,01,28,17.10
2008,10,08,01,29,14.60
2008,10,08,01,30,14.40
2008,10,08,01,31,19.20
2008,10,08,01,32,13.40
2008,10,08,01,33,20.30
2008,10,08,01,34,13.20
2008,10,08,01,35,8.80
2008,10,08,01,36,9.40
2008,10,08,01,37,11.40
2008,10,08,01,38,11.60
2008,10,08,01,39,9.70
2008,10,08,01,40,10.70
2008,10,08,01,41,11.90
2008,10,08,01,42,7.60
2008,10,08,01,43,16.90
2008,10,08,01,44,15.20
2008,10,08,01,45,8.00
2008,10,08,01,46,11.00
2008,10,08,01,47,13.00
2008,10,08,01,48,14.40
2008,10,08,01,49,9.80
2008,10,08,01,50,17.40
2008,10,08,01,51,11.80
2008,10,08,01,52,7.20
2008,10,08,01,53,9.80
2008,10,08,01,54,13.30
2008,10,08,01,55,17.50
2008,10,08,01,56,9.30
2008,10,08,01,57,11.60
2008,10,08,01,58,13.30
2008,10,08,01,59,12.70
2008,10,08,02,00,9.40
2008,10,08,02,01,10.90
2008,10,08,02,02,11.60
2008,10,08,02,03,8.20
2008,10,08,02,04,14.40
2008,10,08,02,05,14.70
2008,10,08,02,06,15.90
2008,10,08,02,07,10.20
2008,10,08,02,08,7.20
2008,10,08,02,09,10.50
2008,10,08,02,10,13.10
2008,10,08,02,11,8.10
2008,10,08,02,12,13.60
2008,10,08,02,13,14.80
2008,10,08,02,14,8.80
2008,10,08,02,15,12.80
2008,10,08,02,16,8.00
2008,10,08,02,17,10.30
2008,10,08,02,18,12.60
2008,10,08,02,19,12.30
2008,10,08,02,20,14.40
2008,10,08,02,21,11.50
2008,10,08,02,22,15.60
2008,10,08,02,23,10.70
2008,10,08,02,24,15.90
2008,10,08,02,25,12.80
2008,10,08,02,26,6.20
2008,10,08,02,27,7.80
2008,10,08,02,28,10.50
2008,10,08,02,29,13.60
2008,10,08,02,30,15.40
2008,10,08,02,31,15.90
2008,10,08,02,32,16.40
2008,10,08,02,33,11.20
2008,10,08,02,34,14.40
2008,10,08,02,35,12.90
2008,10,08,02,36,7.80
2008,10,08,02,37,8.50
2008,10,08,02,38,9.10
2008,10,08,02,39,6.80
2008,10,08,02,40,8.90
2008,10,08,02,41,6.40
2008,10,08,02,42,7.60
2008,10,08,02,43,8.50
2008,10,08,02,44,7.70
2008,10,08,02,45,1.90
2008,10,08,02,46,7.40
2008,10,08,02,47,7.40
2008,10,08,02,48,6.70
2008,10,08,02,49,4.60
2008,10,08,02,50,2.80
2008,10,08,02,51,7.00
2008,10,08,02,52,4.00
2008,10,08,02,53,5.20
2008,10,08,02,54,7.90
2008,10,08,02,55,8.80
2008,10,08,02,56,4.10
2008,10,08,02,57,9.00
2008,10,08,02,58,13.30
2008,10,08,02,59,11.00
2008,10,08,03,00,10.00
2008,10,08,03,01,7.20
2008,10,08,03,02,7.20
2008,10,08,03,03,6.80
2008,10,08,03,04,5.60
2008,10,08,03,05,8.40
2008,10,08,03,06,9.00
2008,10,08,03,07,14.20
2008,10,08,03,08,11.90
2008,10,08,03,09,3.50
2008,10,08,03,10,5.00
2008,10,08,03,11,8.80
2008,10,08,03,12,6.40
2008,10,08,03,13,9.60
2008,10,08,03,14,14.00
2008,10,08,03,15,12.60
2008,10,08,03,16,8.10
2008,10,08,03,17,8.40
2008,10,08,03,18,6.40
2008,10,08,03,19,5.60
2008,10,08,03,20,11.70
2008,10,08,03,21,12.40
2008,10,08,03,22,11.90
2008,10,08,03,23,8.30
2008,10,08,03,24,6.80
2008,10,08,03,25,7.20
2008,10,08,03,26,3.90
2008,10,08,03,27,7.20
2008,10,08,03,28,7.30
2008,10,08,03,29,12.70
2008,10,08,03,30,14.20
2008,10,08,03,31,13.10
2008,10,08,03,32,5.60
2008,10,08,03,33,11.80
2008,10,08,03,34,13.70
2008,10,08,03,35,11.00
2008,10,08,03,36,8.80
2008,10,08,03,37,12.70
2008,10,08,03,38,6.40
2008,10,08,03,39,2.70
2008,10,08,03,40,6.40
2008,10,08,03,41,1.70
2008,10,08,03,42,2.10
2008,10,08,03,43,0.90
2008,10,08,03,44,5.80
2008,10,08,03,45,3.20
2008,10,08,03,46,5.90
2008,10,08,03,47,5.60
2008,10,08,03,48,3.40
2008,10,08,03,49,6.00
2008,10,08,03,50,1.20
2008,10,08,03,51,8.10
2008,10,08,03,52,8.80
2008,10,08,03,53,2.20
2008,10,08,03,54,2.80
2008,10,08,03,55,8.50
2008,10,08,03,56,9.50
2008,10,08,03,57,8.30
2008,10,08,03,58,2.40
2008,10,08,03,59,1.50
2008,10,08,04,00,2.80
2008,10,08,04,01,4.40
2008,10,08,04,02,3.50
2008,10,08,04,03,3.70
2008,10,08,04,04,0.80
2008,10,08,04,05,1.10
2008,10,08,04,06,0.80
2008,10,08,04,07,5.10
2008,10,08,04,08,1.20
2008,10,08,04,09,0.90
2008,10,08,04,10,2.30
2008,10,08,04,11,0.00
2008,10,08,04,12,2.10
2008,10,08,04,13,0.00
2008,10,08,04,14,3.70
2008,10,08,04,15,1.80
2008,10,08,04,16,6.30
2008,10,08,04,17,14.20
2008,10,08,04,18,10.40
2008,10,08,04,19,2.10
2008,10,08,04,20,3.90
2008,10,08,04,21,3.10
2008,10,08,04,22,2.10
2008,10,08,04,23,4.10
2008,10,08,04,24,2.50
2008,10,08,04,25,0.30
2008,10,08,04,26,1.50
2008,10,08,04,27,1.60
2008,10,08,04,28,1.40
2008,10,08,04,29,0.40
2008,10,08,04,30,0.00
2008,10,08,04,31,0.00
2008,10,08,04,32,0.20
2008,10,08,04,33,0.00
2008,10,08,04,34,0.00
2008,10,08,04,35,0.00
2008,10,08,04,36,0.00
2008,10,08,04,37,0.00
2008,10,08,04,38,0.20
2008,10,08,04,39,1.30
2008,10,08,04,40,0.30
2008,10,08,04,41,0.20
2008,10,08,04,42,0.10
2008,10,08,04,43,2.00
2008,10,08,04,44,0.60
2008,10,08,04,45,3.40
2008,10,08,04,46,1.10
2008,10,08,04,47,1.00
2008,10,08,04,48,0.10
2008,10,08,04,49,0.00
2008,10,08,04,50,1.30
2008,10,08,04,51,0.00
2008,10,08,04,52,0.00
2008,10,08,04,53,1.10
2008,10,08,04,54,2.60
2008,10,08,04,55,0.50
2008,10,08,04,56,2.20
2008,10,08,04,57,0.10
2008,10,08,04,58,0.00
2008,10,08,04,59,0.00
2008,10,08,05,00,0.70
2008,10,08,05,01,3.50
2008,10,08,05,02,3.30
2008,10,08,05,03,1.40
2008,10,08,05,04,0.70
2008,10,08,05,05,0.00
2008,10,08,05,06,0.00
2008,10,08,05,07,0.00
2008,10,08,05,08,0.00
2008,10,08,05,09,0.00
2008,10,08,05,10,0.00
2008,10,08,05,11,0.00
2008,10,08,05,12,0.00
2008,10,08,05,13,0.00
2008,10,08,05,14,0.00
2008,10,08,05,15,0.00
2008,10,08,05,16,0.00
2008,10,08,05,17,0.00
2008,10,08,05,18,0.00
2008,10,08,05,19,0.00
2008,10,08,05,20,0.00
2008,10,08,05,21,0.00
2008,10,08,05,22,0.00
2008,10,08,05,23,0.00
2008,10,08,05,24,0.00
2008,10,08,05,25,0.00
2008,10,08,05,26,0.00
2008,10,08,05,27,0.00
2008,10,08,05,28,0.00
2008,10,08,05,29,0.00
2008,10,08,05,30,0.00
2008,10,08,05,31,0.00
2008,10,08,05,32,0.00
2008,10,08,05,33,0.00
2008,10,08,05,34,0.00
2008,10,08,05,35,0.00
2008,10,08,05,36,0.00
2008,10,08,05,37,0.00
2008,10,08,05,38,0.00
2008,10,08,05,39,0.00
2008,10,08,05,40,0.00
2008,10,08,05,41,0.00
2008,10,08,05,42,0.00
2008,10,08,05,43,0.00
2008,10,08,05,44,0.00
2008,10,08,05,45,0.00
2008,10,08,05,46,0.00
2008,10,08,05,47,0.00
2008,10,08,05,48,0.00
2008,10,08,05,49,0.00
2008,10,08,05,50,0.00
2008,10,08,05,51,0.00
2008,10,08,05,52,0.00
2008,10,08,05,53,0.00
2008,10,08,05,54,0.00
2008,10,08,05,55,0.40
2008,10,08,05,56,3.30
2008,10,08,05,57,3.70
2008,10,08,05,58,3.10
2008,10,08,05,59,3.90
2008,10,08,06,00,3.30
2008,10,08,06,01,3.00
2008,10,08,06,02,4.00
2008,10,08,06,03,1.60
2008,10,08,06,04,0.00
2008,10,08,06,05,0.70
2008,10,08,06,06,1.00
2008,10,08,06,07,2.00
2008,10,08,06,08,1.50
2008,10,08,06,09,0.00
2008,10,08,06,10,0.00
2008,10,08,06,11,1.70
2008,10,08,06,12,0.20
2008,10,08,06,13,0.00
2008,10,08,06,14,0.00
2008,10,08,06,15,0.10
2008,10,08,06,16,0.00
2008,10,08,06,17,0.00
2008,10,08,06,18,0.00
2008,10,08,06,19,0.00
2008,10,08,06,20,0.00
2008,10,08,06,21,0.00
2008,10,08,06,22,0.00
2008,10,08,06,23,0.00
2008,10,08,06,24,0.00
2008,10,08,06,25,0.00
2008,10,08,06,26,0.00
2008,10,08,06,27,0.00
2008,10,08,06,28,0.00
2008,10,08,06,29,0.00
2008,10,08,06,30,0.00
2008,10,08,06,31,0.00
2008,10,08,06,32,0.00
2008,10,08,08,30,0.00
2008,10,08,08,31,0.00
2008,10,08,08,32,0.00
2008,10,08,08,33,0.00
2008,10,08,08,34,0.00
2008,10,08,08,35,0.00
2008,10,08,08,36,0.00
2008,10,08,08,37,0.00
2008,10,08,08,38,0.00
2008,10,08,08,39,0.00
2008,10,08,08,40,0.00
2008,10,08,08,41,0.00
2008,10,08,08,42,0.00
2008,10,08,08,43,0.00
2008,10,08,08,44,0.00
2008,10,08,08,45,0.00
2008,10,08,08,46,0.00
2008,10,08,08,47,0.00
2008,10,08,08,48,0.00
2008,10,08,08,49,0.00
2008,10,08,08,50,0.00
2008,10,08,08,51,0.00
2008,10,08,08,52,0.00
2008,10,08,08,53,0.00
2008,10,08,08,54,0.00
2008,10,08,08,55,0.00
2008,10,08,08,56,0.00
2008,10,08,08,57,0.00
2008,10,08,08,58,0.00
2008,10,08,08,59,0.00
2008,10,08,09,00,0.40
2008,10,08,09,01,2.10
2008,10,08,09,02,1.20
2008,10,08,09,03,0.50
2008,10,08,09,04,0.80
2008,10,08,09,05,2.00
2008,10,08,09,06,0.80
2008,10,08,09,07,2.20
2008,10,08,09,08,2.80
2008,10,08,09,09,3.10
2008,10,08,09,10,4.90
2008,10,08,09,11,3.60
2008,10,08,09,12,3.50
2008,10,08,09,13,1.50
2008,10,08,09,14,3.80
2008,10,08,09,15,2.90
2008,10,08,09,16,3.40
2008,10,08,09,17,3.70
2008,10,08,09,18,4.00
2008,10,08,09,19,4.50
2008,10,08,09,20,4.20
2008,10,08,09,21,3.40
2008,10,08,09,22,4.40
2008,10,08,09,23,3.70
2008,10,08,09,24,3.20
2008,10,08,09,25,3.10
2008,10,08,09,26,3.90
2008,10,08,09,27,3.30
2008,10,08,09,28,4.30
2008,10,08,09,29,5.70
2008,10,08,09,30,5.10
2008,10,08,09,31,4.20
2008,10,08,09,32,5.00
2008,10,08,09,33,5.40
2008,10,08,09,34,4.40
2008,10,08,09,35,4.90
2008,10,08,09,36,4.90
2008,10,08,09,37,5.00
2008,10,08,09,38,5.90
2008,10,08,09,39,5.50
2008,10,08,09,40,6.40
2008,10,08,09,41,4.90
2008,10,08,09,42,4.00
2008,10,08,09,43,4.50
2008,10,08,09,44,4.90
2008,10,08,09,45,3.20
2008,10,08,09,46,3.90
2008,10,08,09,47,5.20
2008,10,08,09,48,4.60
2008,10,08,09,49,4.10
2008,10,08,09,50,4.70
2008,10,08,09,51,5.50
2008,10,08,09,52,4.30
2008,10,08,09,53,4.10
2008,10,08,09,54,5.00
2008,10,08,09,55,4.70
2008,10,08,09,56,6.90
2008,10,08,09,57,6.20
2008,10,08,09,58,7.10
2008,10,08,09,59,4.60
2008,10,08,10,00,4.60
2008,10,08,10,01,4.80
2008,10,08,10,02,5.30
2008,10,08,10,03,4.70
2008,10,08,10,04,6.00
2008,10,08,10,05,3.50
2008,10,08,10,06,2.80
2008,10,08,10,07,3.90
2008,10,08,10,08,8.00
2008,10,08,10,09,7.70
2008,10,08,10,10,6.90
2008,10,08,10,11,7.80
2008,10,08,10,12,6.70
2008,10,08,10,13,6.30
2008,10,08,10,14,5.70
2008,10,08,10,15,5.30
2008,10,08,10,16,4.00
2008,10,08,10,17,6.40
2008,10,08,10,18,3.10
2008,10,08,10,19,4.20
2008,10,08,10,20,3.80
2008,10,08,10,21,4.50
2008,10,08,10,22,6.40
2008,10,08,10,23,5.80
2008,10,08,10,24,6.80
2008,10,08,10,25,4.30
2008,10,08,10,26,5.00
2008,10,08,10,27,4.30
2008,10,08,10,28,5.40
2008,10,08,10,29,4.40
2008,10,08,10,30,5.80
2008,10,08,10,31,4.20
2008,10,08,10,32,2.50
2008,10,08,10,33,4.70
2008,10,08,10,34,2.90
2008,10,08,10,35,3.90
2008,10,08,10,36,2.10
2008,10,08,10,37,1.80
2008,10,08,10,38,2.60
2008,10,08,10,39,6.10
2008,10,08,10,40,3.30
2008,10,08,10,41,3.90
2008,10,08,10,42,2.10
2008,10,08,10,43,1.00
2008,10,08,10,44,4.60
2008,10,08,10,45,4.40
2008,10,08,10,46,5.40
2008,10,08,10,47,2.90
2008,10,08,10,48,2.10
2008,10,08,10,49,3.90
2008,10,08,10,50,2.80
2008,10,08,10,51,0.00
2008,10,08,10,52,3.80
2008,10,08,10,53,4.80
2008,10,08,10,54,4.20
2008,10,08,10,55,6.10
2008,10,08,10,56,5.20
2008,10,08,10,57,6.50
2008,10,08,10,58,4.50
2008,10,08,10,59,4.20
2008,10,08,11,00,2.80
2008,10,08,11,01,2.00
2008,10,08,11,02,0.10
2008,10,08,11,03,2.40
2008,10,08,11,04,7.80
2008,10,08,11,05,6.20
2008,10,08,11,06,5.80
2008,10,08,11,07,6.40
2008,10,08,11,08,2.00
2008,10,08,11,09,4.00
2008,10,08,11,10,2.10
2008,10,08,11,11,2.00
2008,10,08,11,12,0.90
2008,10,08,11,13,5.40
2008,10,08,11,14,8.40
2008,10,08,11,15,3.50
2008,10,08,11,16,4.20
2008,10,08,11,17,5.40
2008,10,08,11,18,2.20
2008,10,08,11,19,7.70
2008,10,08,11,20,1.70
2008,10,08,11,21,2.20
2008,10,08,11,22,0.70
2008,10,08,11,23,4.00
2008,10,08,11,24,9.40
2008,10,08,11,25,3.70
2008,10,08,11,26,1.50
2008,10,08,11,27,7.30
2008,10,08,11,28,5.60
2008,10,08,11,29,4.80
2008,10,08,11,30,6.20
2008,10,08,11,31,9.80
2008,10,08,11,32,7.30
2008,10,08,11,33,7.60
2008,10,08,11,34,6.60
2008,10,08,11,35,8.00
2008,10,08,11,36,4.00
2008,10,08,11,37,7.50
2008,10,08,11,38,1.10
2008,10,08,11,39,5.80
2008,10,08,11,40,6.50
2008,10,08,11,41,2.70
2008,10,08,11,42,4.30
2008,10,08,11,43,0.00
2008,10,08,11,44,1.90
2008,10,08,11,45,0.50
2008,10,08,11,46,0.20
2008,10,08,11,47,1.60
2008,10,08,11,48,0.20
2008,10,08,11,49,0.00
2008,10,08,11,50,2.90
2008,10,08,11,51,1.50
2008,10,08,11,52,3.80
2008,10,08,11,53,2.30
2008,10,08,11,54,6.40
2008,10,08,11,55,4.00
2008,10,08,11,56,7.10
2008,10,08,11,57,8.10
2008,10,08,11,58,4.80
2008,10,08,11,59,9.60
2008,10,08,12,00,9.60
2008,10,08,12,01,9.30
2008,10,08,12,02,4.90
2008,10,08,12,03,7.90
2008,10,08,12,04,3.90
2008,10,08,12,05,6.30
2008,10,08,12,06,5.50
2008,10,08,12,07,8.60
2008,10,08,12,08,7.40
2008,10,08,12,09,8.30
2008,10,08,12,10,7.30
2008,10,08,12,11,3.10
2008,10,08,12,12,6.10
2008,10,08,12,13,8.40
2008,10,08,12,14,7.10
2008,10,08,12,15,7.00
2008,10,08,12,16,5.60
2008,10,08,12,17,7.20
2008,10,08,12,18,7.50
2008,10,08,12,19,2.10
2008,10,08,12,20,6.20
2008,10,08,12,21,7.30
2008,10,08,12,22,6.80
2008,10,08,12,23,6.30
2008,10,08,12,24,1.20
2008,10,08,12,25,1.80
2008,10,08,12,26,4.60
2008,10,08,12,27,3.10
2008,10,08,12,28,2.90
2008,10,08,12,29,5.30
2008,10,08,12,30,7.60
2008,10,08,12,31,9.40
2008,10,08,12,32,3.60
2008,10,08,12,33,5.70
2008,10,08,12,34,5.00
2008,10,08,12,35,2.20
2008,10,08,12,36,0.80
2008,10,08,12,37,4.80
2008,10,08,12,38,9.50
2008,10,08,12,39,10.90
2008,10,08,12,40,8.00
2008,10,08,12,41,7.50
2008,10,08,12,42,10.00
2008,10,08,12,43,4.10
2008,10,08,12,44,5.50
2008,10,08,12,45,4.70
2008,10,08,12,46,5.70
2008,10,08,12,47,4.00
2008,10,08,12,48,6.00
2008,10,08,12,49,7.40
2008,10,08,12,50,8.50
2008,10,08,12,51,9.10
2008,10,08,12,52,7.30
2008,10,08,12,53,6.30
2008,10,08,12,54,4.50
2008,10,08,12,55,4.40
2008,10,08,12,56,6.60
2008,10,08,12,57,6.80
2008,10,08,12,58,6.90
2008,10,08,12,59,5.70
2008,10,08,13,00,4.70
2008,10,08,13,01,6.00
2008,10,08,13,02,8.40
2008,10,08,13,03,6.40
2008,10,08,13,04,5.10
2008,10,08,13,05,9.00
2008,10,08,13,06,9.30
2008,10,08,13,07,7.90
2008,10,08,13,08,6.20
2008,10,08,13,09,3.60
2008,10,08,13,10,3.70
2008,10,08,13,11,2.90
2008,10,08,13,12,6.30
2008,10,08,13,13,5.70
2008,10,08,13,14,7.80
2008,10,08,13,15,6.80
2008,10,08,13,16,7.60
2008,10,08,13,17,3.90
2008,10,08,13,18,9.80
2008,10,08,13,19,11.40
2008,10,08,13,20,6.30
2008,10,08,13,21,9.20
2008,10,08,13,22,7.50
2008,10,08,13,23,4.00
2008,10,08,13,24,6.60
2008,10,08,13,25,7.50
2008,10,08,13,26,4.20
2008,10,08,13,27,5.50
2008,10,08,13,28,6.10
2008,10,08,13,29,7.20
2008,10,08,13,30,6.10
2008,10,08,13,31,3.20
2008,10,08,13,32,3.20
2008,10,08,13,33,0.70
2008,10,08,13,34,2.10
2008,10,08,13,35,3.90
2008,10,08,13,36,4.00
2008,10,08,13,37,4.60
2008,10,08,13,38,7.40
2008,10,08,13,39,6.40
2008,10,08,13,40,6.40
2008,10,08,13,41,6.30
2008,10,08,13,42,6.60
2008,10,08,13,43,5.90
2008,10,08,13,44,5.20
2008,10,08,13,45,1.20
2008,10,08,13,46,0.00
2008,10,08,13,47,1.40
2008,10,08,13,48,3.80
2008,10,08,13,49,4.00
2008,10,08,13,50,4.00
2008,10,08,13,51,3.00
2008,10,08,13,52,6.20
2008,10,08,13,53,5.70
2008,10,08,13,54,2.30
2008,10,08,13,55,6.20
2008,10,08,13,56,4.60
2008,10,08,13,57,6.20
2008,10,08,13,58,6.10
2008,10,08,13,59,4.90
2008,10,08,14,00,4.70
2008,10,08,14,01,3.80
2008,10,08,14,02,5.10
2008,10,08,14,03,4.90
2008,10,08,14,04,4.60
2008,10,08,14,05,7.50
2008,10,08,14,06,8.20
2008,10,08,14,07,7.30
2008,10,08,14,08,5.50
2008,10,08,14,09,4.40
2008,10,08,14,10,6.10
2008,10,08,14,11,1.60
2008,10,08,14,12,4.10
2008,10,08,14,13,3.20
2008,10,08,14,14,6.90
2008,10,08,14,15,6.90
2008,10,08,14,16,7.90
2008,10,08,14,17,6.10
2008,10,08,14,18,2.10
2008,10,08,14,19,4.10
2008,10,08,14,20,6.40
2008,10,08,14,21,6.10
2008,10,08,14,22,3.30
2008,10,08,14,23,5.90
2008,10,08,14,24,3.50
2008,10,08,14,25,3.00
2008,10,08,14,26,1.70
2008,10,08,14,27,0.60
2008,10,08,14,28,3.10
2008,10,08,14,29,3.40
2008,10,08,14,30,4.90
2008,10,08,14,31,3.10
2008,10,08,14,32,1.90
2008,10,08,14,33,3.50
2008,10,08,14,34,0.70
2008,10,08,14,35,2.80
2008,10,08,14,36,0.20
2008,10,08,14,37,1.50
2008,10,08,14,38,3.20
2008,10,08,14,39,5.10
2008,10,08,14,40,3.30
2008,10,08,14,41,1.00
2008,10,08,14,42,2.10
2008,10,08,14,43,5.30
2008,10,08,14,44,4.20
2008,10,08,14,45,2.70
2008,10,08,14,46,4.90
2008,10,08,14,47,4.60
2008,10,08,14,48,3.40
2008,10,08,14,49,4.80
2008,10,08,14,50,5.10
2008,10,08,14,51,4.80
2008,10,08,14,52,3.40
2008,10,08,14,53,5.60
2008,10,08,14,54,5.20
2008,10,08,14,55,6.10
2008,10,08,14,56,4.00
2008,10,08,14,57,3.70
2008,10,08,14,58,5.50
2008,10,08,14,59,7.50
2008,10,08,15,00,5.50
2008,10,08,15,01,5.70
2008,10,08,15,02,6.00
2008,10,08,15,03,6.50
2008,10,08,15,04,7.80
2008,10,08,15,05,4.10
2008,10,08,15,06,4.30
2008,10,08,15,07,4.30
2008,10,08,15,08,3.80
2008,10,08,15,09,4.90
2008,10,08,15,10,5.00
2008,10,08,15,11,3.30
2008,10,08,15,12,5.90
2008,10,08,15,13,5.80
2008,10,08,15,14,6.80
2008,10,08,15,15,6.50
2008,10,08,15,16,4.60
2008,10,08,15,17,2.70
2008,10,08,15,18,4.40
2008,10,08,15,19,2.60
2008,10,08,15,20,0.70
2008,10,08,15,21,5.30
2008,10,08,15,22,3.90
2008,10,08,15,23,3.30
2008,10,08,15,24,4.10
2008,10,08,15,25,5.50
2008,10,08,15,26,2.50
2008,10,08,15,27,1.80
2008,10,08,15,28,1.90
2008,10,08,15,29,2.50
2008,10,08,15,30,3.60
2008,10,08,15,31,1.60
2008,10,08,15,32,3.00
2008,10,08,15,33,0.30
2008,10,08,15,34,0.20
2008,10,08,15,35,4.40
2008,10,08,15,36,3.80
2008,10,08,15,37,1.70
2008,10,08,15,38,2.20
2008,10,08,15,39,0.40
2008,10,08,15,40,4.00
2008,10,08,15,41,3.20
2008,10,08,15,42,2.40
2008,10,08,15,43,0.10
2008,10,08,15,44,3.00
2008,10,08,15,45,3.70
2008,10,08,15,46,4.30
2008,10,08,15,47,6.00
2008,10,08,15,48,4.30
2008,10,08,15,49,2.30
2008,10,08,15,50,2.10
2008,10,08,15,51,4.60
2008,10,08,15,52,3.70
2008,10,08,15,53,0.70
2008,10,08,15,54,0.40
2008,10,08,15,55,0.20
2008,10,08,15,56,1.20
2008,10,08,15,57,1.90
2008,10,08,15,58,2.40
2008,10,08,15,59,3.30
2008,10,08,16,00,2.80
2008,10,08,16,01,9.20
2008,10,08,16,02,3.40
2008,10,08,16,03,4.10
2008,10,08,16,04,3.50
2008,10,08,16,05,3.00
2008,10,08,16,06,2.20
2008,10,08,16,07,3.80
2008,10,08,16,08,5.00
2008,10,08,16,09,2.10
2008,10,08,16,10,5.50
2008,10,08,16,11,3.20
2008,10,08,16,12,6.00
2008,10,08,16,13,4.00
2008,10,08,16,14,3.80
2008,10,08,16,15,5.60
2008,10,08,16,16,5.50
2008,10,08,16,17,5.50
2008,10,08,16,18,4.40
2008,10,08,16,19,5.90
2008,10,08,16,20,5.40
2008,10,08,16,21,4.80
2008,10,08,16,22,5.40
2008,10,08,16,23,6.50
2008,10,08,16,24,4.90
2008,10,08,16,25,2.50
2008,10,08,16,26,2.20
2008,10,08,16,27,5.40
2008,10,08,16,28,3.40
2008,10,08,16,29,4.60
2008,10,08,16,30,5.10
2008,10,08,16,31,3.20
2008,10,08,16,32,4.20
2008,10,08,16,33,2.90
2008,10,08,16,34,3.10
2008,10,08,16,35,2.20
2008,10,08,16,36,4.00
2008,10,08,16,37,2.60
2008,10,08,16,38,2.60
2008,10,08,16,39,4.10
2008,10,08,16,40,1.80
2008,10,08,16,41,3.50
2008,10,08,16,42,2.40
2008,10,08,16,43,2.60
2008,10,08,16,44,2.50
2008,10,08,16,45,3.40
2008,10,08,16,46,4.00
2008,10,08,16,47,3.10
2008,10,08,16,48,3.90
2008,10,08,16,49,4.40
2008,10,08,16,50,3.50
2008,10,08,16,51,1.70
2008,10,08,16,52,4.30
2008,10,08,16,53,1.20
2008,10,08,16,54,2.00
2008,10,08,16,55,2.00
2008,10,08,16,56,1.50
2008,10,08,16,57,0.30
2008,10,08,16,58,1.10
2008,10,08,16,59,0.50
2008,10,08,17,00,0.40
2008,10,08,17,01,0.90
2008,10,08,17,02,1.00
2008,10,08,17,03,2.30
2008,10,08,17,04,0.50
2008,10,08,17,05,0.00
2008,10,08,17,06,1.30
2008,10,08,17,07,2.10
2008,10,08,17,08,3.90
2008,10,08,17,09,2.30
2008,10,08,17,10,2.10
2008,10,08,17,11,1.70
2008,10,08,17,12,4.30
2008,10,08,17,13,0.60
2008,10,08,17,14,1.20
2008,10,08,17,15,2.50
2008,10,08,17,16,5.10
2008,10,08,17,17,2.50
2008,10,08,17,18,2.60
2008,10,08,17,19,0.10
2008,10,08,17,20,0.70
2008,10,08,17,21,0.80
2008,10,08,17,22,0.40
2008,10,08,17,23,1.60
2008,10,08,17,24,1.00
2008,10,08,17,25,0.20
2008,10,08,17,26,0.00
2008,10,08,17,27,0.00
2008,10,08,17,28,0.00
2008,10,08,17,29,0.80
2008,10,08,17,30,0.40
2008,10,08,17,31,2.00
2008,10,08,17,32,1.60
2008,10,08,17,33,0.20
2008,10,08,17,34,0.80
2008,10,08,17,35,0.20
2008,10,08,17,36,1.10
2008,10,08,17,37,0.10
2008,10,08,17,38,0.00
2008,10,08,17,39,0.20
2008,10,08,17,40,0.00
2008,10,08,17,41,0.00
2008,10,08,17,42,0.00
2008,10,08,17,43,0.10
2008,10,08,17,44,0.00
2008,10,08,17,45,0.00
2008,10,08,17,46,0.00
2008,10,08,17,47,0.00
2008,10,08,17,48,0.00
2008,10,08,17,49,0.00
2008,10,08,17,50,0.00
2008,10,08,17,51,0.00
2008,10,08,17,52,0.00
2008,10,08,17,53,0.00
2008,10,08,17,54,0.00
2008,10,08,17,55,0.00
2008,10,08,17,56,0.00
2008,10,08,17,57,0.00
2008,10,08,17,58,0.00
2008,10,08,17,59,0.00
2008,10,08,18,00,0.00
2008,10,08,18,01,0.00
2008,10,08,18,02,0.00
2008,10,08,18,03,0.00
2008,10,08,18,04,0.00
2008,10,08,18,05,0.00
2008,10,08,18,06,0.00
2008,10,08,18,07,0.00
2008,10,08,18,08,0.00
2008,10,08,18,09,0.00
2008,10,08,18,10,0.00
2008,10,08,18,11,0.00
2008,10,08,18,12,0.00
2008,10,08,18,13,0.00
2008,10,08,18,14,0.00
2008,10,08,18,15,0.00
2008,10,08,18,16,0.00
2008,10,08,18,17,0.00
2008,10,08,18,18,0.00
2008,10,08,18,19,0.00
2008,10,08,18,20,0.00
2008,10,08,18,21,0.00
2008,10,08,18,22,0.00
2008,10,08,18,23,0.00
2008,10,08,18,24,0.00
2008,10,08,18,25,0.00
2008,10,08,18,26,0.00
2008,10,08,18,27,0.00
2008,10,08,18,28,0.00
2008,10,08,18,29,0.00
2008,10,08,18,30,0.00
2008,10,08,18,31,0.00
2008,10,08,18,32,0.10
2008,10,08,18,33,0.00
2008,10,08,18,34,1.20
2008,10,08,18,35,0.00
2008,10,08,18,36,0.00
2008,10,08,18,37,0.10
2008,10,08,18,38,0.00
2008,10,08,18,39,1.20
2008,10,08,18,40,2.90
2008,10,08,18,41,2.90
2008,10,08,18,42,2.00
2008,10,08,18,43,1.40
2008,10,08,18,44,0.10
2008,10,08,18,45,0.00
2008,10,08,18,46,0.00
2008,10,08,18,47,0.00
2008,10,08,18,48,0.00
2008,10,08,18,49,0.00
2008,10,08,18,50,0.00
2008,10,08,18,51,0.00
2008,10,08,18,52,0.00
2008,10,08,18,53,0.00
2008,10,08,18,54,0.00
2008,10,08,18,55,0.00
2008,10,08,18,56,0.00
2008,10,08,18,57,0.00
2008,10,08,18,58,0.00
2008,10,08,18,59,0.00
2008,10,08,19,00,0.00
2008,10,08,19,01,0.00
2008,10,08,19,02,0.00
2008,10,08,19,03,0.00
2008,10,08,19,04,0.00
2008,10,08,19,05,0.00
2008,10,08,19,06,0.00
2008,10,08,19,07,0.00
2008,10,08,19,08,0.00
2008,10,08,19,09,0.00
2008,10,08,19,10,0.00
2008,10,08,19,11,0.00
2008,10,08,19,12,0.00
2008,10,08,19,13,0.00
2008,10,08,19,14,0.00
2008,10,08,19,15,0.00
2008,10,08,19,16,0.00
2008,10,08,19,17,0.00
2008,10,08,19,18,0.00
2008,10,08,19,19,0.00
2008,10,08,19,20,0.00
2008,10,08,19,21,0.00
2008,10,08,19,22,0.00
2008,10,08,19,23,0.00
2008,10,08,19,24,0.00
2008,10,08,19,25,0.00
2008,10,08,19,26,0.00
2008,10,08,19,27,0.00
2008,10,08,19,28,0.00
2008,10,08,19,29,0.00
2008,10,08,19,30,0.00
2008,10,08,19,31,0.00
2008,10,08,19,32,0.00
2008,10,08,19,33,0.00
2008,10,08,19,34,0.00
2008,10,08,19,35,0.00
2008,10,08,19,36,0.00
2008,10,08,19,37,0.00
2008,10,08,19,38,0.00
2008,10,08,19,39,0.00
2008,10,08,19,40,0.00
2008,10,08,19,41,0.00
2008,10,08,19,42,0.00
2008,10,08,19,43,0.00
2008,10,08,19,44,0.00
2008,10,08,19,45,0.00
2008,10,08,19,46,0.00
2008,10,08,19,47,0.00
2008,10,08,19,48,0.00
2008,10,08,19,49,0.00
2008,10,08,19,50,0.00
2008,10,08,19,51,0.00
2008,10,08,19,52,0.00
2008,10,08,19,53,0.00
2008,10,08,19,54,0.00
2008,10,08,19,55,0.00
2008,10,08,19,56,0.00
2008,10,08,19,57,0.00
2008,10,08,19,58,0.00
2008,10,08,19,59,0.00